Regional Weather Roundup
Issued by NWS

Home | Current Version | Previous Version | Text Only | Print | Product List | Glossary On
Versions: 1 2 3 4 5 6 7 8 9 10 11 12 13 14 15 16 17 18 19 20 21 22 23 24 25 26 27 28 29 30 31 32 33 34 35 36 37 38 39 40 41 42 43 44 45 46 47 48 49
000
ASUS42 KFFC 222203
RWRGA
WEATHER ROUNDUP FOR GEORGIA
NATIONAL WEATHER SERVICE PEACHTREE CITY GA
600 PM EDT FRI MAY 22 2015

NOTE: "FAIR" INDICATES FEW OR NO CLOUDS BELOW 12,000 FEET WITH NO
SIGNIFICANT WEATHER AND/OR OBSTRUCTIONS TO VISIBILITY.

* = USE WITH CAUTION. THE STATIONS MARKED WITH AN ASTERISK MAY NOT
REPORT WEATHER SUCH AS PRECIPITATION, FOG, OR THUNDER AND ARE NOT
QUALITY CONTROLLED BY NWS.

THE REMARK "TC" DENOTES TEMPERATURE READING IN DEGREES CELSIUS.

GAZ001>058-222300-
NORTH GEORGIA

CITY           SKY/WX    TMP DP  RH WIND       PRES   REMARKS
ATLANTA        MOSUNNY   78  51  38 NW9       30.19S
ATHENS         SUNNY     78  47  33 CALM      30.20R
CHAMBLEE       SUNNY     78  49  35 N3        30.20R
PEACHTREE CITY SUNNY     79  50  36 W3        30.20R
ROME           SUNNY     76  48  37 N7        30.20F
WEST ATLANTA   SUNNY     78  49  35 CALM      30.19S
GAINESVILLE    SUNNY     75  49  39 E3        30.22S
CARTERSVILLE   SUNNY     77  48  35 N10       30.21S


CITY           SKY/WX    TMP DP  RH WIND       PRES   REMARKS
DALTON*        SUNNY     72  45  37 N7        30.21F
LAWRENCEVILLE* SUNNY     77  48  36 CALM      30.19R
KENNESAW*      MOSUNNY   75  52  43 E5        30.21S
BLAIRSVILLE*     N/A     73  32  22 CALM      30.22F
$$

GAZ059>098-102>109-222300-
CENTRAL GEORGIA

CITY           SKY/WX    TMP DP  RH WIND       PRES   REMARKS
AUGUSTA-BUSH   SUNNY     80  49  33 CALM      30.16S
AUGUSTA-DANIEL SUNNY     80  50  34 N9        30.18R
COLUMBUS       SUNNY     80  50  34 NE5       30.16R
MACON          SUNNY     80  53  39 NE5       30.16S
ROBINS AFB     SUNNY     81  55  40 N6        30.15S


CITY           SKY/WX    TMP DP  RH WIND       PRES   REMARKS
LAGRANGE*      SUNNY     81  58  44 N6        30.18F
SYLVANIA*      MOSUNNY   82  57  43 E6        30.17S
MILLEDGEVILLE* SUNNY     79  55  44 CALM      30.18R
$$

GAZ099>101-110>166-222300-
SOUTH GEORGIA

CITY           SKY/WX    TMP DP  RH WIND       PRES   REMARKS
SAVANNAH       PTSUNNY   76  58  53 SE8       30.15F
VALDOSTA       SUNNY     84  50  30 CALM      30.12S
ALMA           SUNNY     83  52  34 NW7       30.12F
FT STEWART     SUNNY     79  61  53 E10       30.13S
ALBANY         SUNNY     84  48  28 N6        30.15S
HUNTER AFB     MOSUNNY   76  62  61 E9        30.14S
MOODY AFB      SUNNY     83  49  30 VRB3      30.11F
BRUNSWICK      PTSUNNY   75  63  64 E14       30.15F


CITY           SKY/WX    TMP DP  RH WIND       PRES   REMARKS
BAINBRIDGE*    SUNNY     86  52  30 CALM      30.14S
MOULTRIE*      SUNNY     84  48  28 NE3       30.13S
VIDALIA*       MOSUNNY   82  55  39 NE6       30.14S
WAYCROSS*      SUNNY     84  54  35 CALM      30.12S
DOUGLAS*       SUNNY     82  50  32 NE3       30.14S
$$


USA.gov is the U.S. government's official web portal to all federal, state and local government web resources and services.